sat.trackr.live / text

‹ back to catalog

STARLINK-3452

NORAD 51744 · 2022-016AG

PAYLOAD ACTIVE UNKNOWN

§ Identity

Operator
Country
US
Launch date
2022-02-21
Launch site
AFETR
Launch vehicle
Mass (kg)
RCS (m²)

Purposes: comms

External: N2YO · Heavens-Above · Gunter

§ Orbital elements

Epoch: 2026-05-24T19:10:13.741824Z

Period
95.44 min
Inclination
53.2140°
Eccentricity
0.0001329
Mean motion
15.08840756 rev/d
Perigee alt
538.8 km
Apogee alt
540.7 km
Semi-major
6,917.9 km
B*
2.4399e-5
RAAN
337.4820°
Arg perigee
75.3935°
Mean anomaly
284.7204°
Rev number
23,505

§ Raw data

STARLINK-34521 51744U 22016AG  26144.79877016  .00000100  00000+0  24399-4 0  99952 51744  53.2140 337.4820 0001329  75.3935 284.7204 15.08840756235058

JSON: /api/v1/satellites/51744 · /tle

For live sub-satellite position, see the globe view (requires WebGL).

§ Visibility from observer

Set your observer location to see the next 7 days of passes ≥ 10°. The values pass through the URL so the page stays shareable.

No JS? Fill the form by hand. The geolocation button needs JavaScript.